Regional Weather Roundup
Issued by NWS Newport/Morehead, NC

Home | Current Version | Previous Version | Text Only | Print | Product List | Glossary On
Versions: 1 2 3 4 5 6 7 8 9 10 11 12 13 14 15 16 17 18 19 20 21 22 23 24 25 26 27 28 29 30 31 32 33 34 35 36 37 38 39 40 41 42 43 44 45 46 47 48 49 50
000
ASUS42 KMHX 251513
RWRMHX
WEATHER ROUNDUP FOR EASTERN NORTH CAROLINA
NATIONAL WEATHER SERVICE NEWPORT/MOREHEAD CITY NC
1100 AM EDT TUE APR 25 2017

NOTE: "FAIR" INDICATES FEW OR NO CLOUDS BELOW 12,000 FEET
WITH NO SIGNIFICANT WEATHER AND/OR OBSTRUCTIONS TO VISIBILITY

NCZ015>017-031-032-045>047-102-103-251600-
NORTH COAST

CITY           SKY/WX    TMP DP  RH WIND       PRES   REMARKS
EDENTON        SUNNY     70  63  77 S8        29.65R
ELIZABETH CITY PTSUNNY   70  62  76 S9        29.65R
KITTY HAWK     PTSUNNY   71  61  71 CALM      29.65S
MANTEO         PTSUNNY   70  62  76 S5        29.66S

$$

NCZ045>047-081-094-103-104-251600-
CENTRAL COAST

CITY           SKY/WX    TMP DP  RH WIND       PRES   REMARKS
FRISCO         CLOUDY    68  59  73 W10G18    29.64S

$$

NCZ095-097-098-100-101-251600-
SOUTHERN COAST

CITY           SKY/WX    TMP DP  RH WIND       PRES   REMARKS
BEAUFORT       CLOUDY    69  67  93 NW3       29.63S
CEDAR ISLAND   NOT AVBL
JACKSONVILLE   PTSUNNY   70  63  78 CALM      29.62S
PINEY ISLAND   CLOUDY   N/A N/A N/A N6        29.64R HAZE
WILMINGTON     MOSUNNY   69  61  75 SW8       29.63S


$$

NCZ011>013-027>030-043-044-078>080-089-090>093-098-251600-
COASTAL PLAIN

CITY           SKY/WX    TMP DP  RH WIND       PRES   REMARKS
AHOSKIE          N/A     67  61  81 SE9       29.62S
CLINTON        SUNNY     66  64  93 CALM      29.64R
ELIZABETHTOWN  CLOUDY    66  61  82 S5        29.65R
GOLDSBORO      PTSUNNY   68  64  88 SW3       29.62S
GREENVILLE     PTSUNNY   70  61  73 CALM      29.66F
HAVELOCK       PTSUNNY   70  64  81 N3        29.65R
KENANSVILLE    CLOUDY    66  63  88 NW3       29.64R
KINSTON        CLOUDY    70  61  73 CALM      29.63S
NEW BERN       CLOUDY    68  63  84 CALM      29.65S
RICHLANDS      MOSUNNY   69  64  84 E3        29.63S
ROCKY MOUNT    PTSUNNY   67  63  87 SW7       29.63R
WASHINGTON     PTSUNNY   68  61  78 W3        29.63S
WHITEVILLE     CLOUDY    60  59  96 SW3       29.67R

$$

AMZ130-135-150-152-154-156-158-170-250-252-270-ANZ085-086-088-633-658-670-251600-
MARINE OBSERVATIONS

STATION/POSITION TIME  TEMP    WIND        PRES    WAVE   SWELL
                       AIR SEA DIR/SP/G            HT/PER HT/PER
                 (UTC) (F)     (DEG/KT/KT) (MB)    (FT/S) (FT/S)
CHESAPEAKE LIGHT NOT AVBL
64 E VA BEACH    1450   58 54  120/  6/  8 1006.3   16/11  15/11
DUCK             1448   63 61  130/  9/ 10 1003.7
2 E DUCK         1430      59                N/A    10/13   7/13
OREGON INLET     1442   71 63   CALM  /  1 1004.0
13E OREGON INLT  1448      58                N/A     9/11  10/11
HATTERAS CG      1448   66 67  270/ 11/ 15 1003.3
DIAMOND BUOY     1450   75 78  140/ 14/ 17 1003.3   10/11  10/11
CAPE LOOKOUT     1500   67      30/  6/ 10 1003.3
BEAUFORT LAB     1448   68 65  320/  2/  3 1002.4
30 SE NEW RVR IN 1408   68     270/ 14/ 19 1003.2
30 SE NEW RVR IN 1443      71                N/A     8/11   5/11
27 SE WRIGHTSVLE 1408   67 72  240/ 16/ 21 1003.1
5 SE WRIGHTSVLE  1408   66 69  270/ 10/ 14 1003.3
225 S CAPE HAT   1450   73 75  190/ 16/ 19 1006.9    9/ 9   8/ 9
41 SE CHARLESTON 1450   65 73  270/ 19/ 23 1005.8    7/11   5/11

$$




USA.gov is the U.S. government's official web portal to all federal, state and local government web resources and services.